Location: ???? ??????? ????
(31.2176°N, 31.6797°E)
Time: 12:05:49
(UTC+00:00)

CZ-2C R/B - Pass Details

Date: 29 October 2020
Orbit: 703 x 909 km, 98.1° (Epoch: 26 November)

Event Time Altitude Azimuth Distance (km) Brightness Sun altitude
Rises 15:50:39 0° 138° (SE) 3,524 6.1 -9.9°
Reaches altitude 10° 15:53:23 10° 127° (SE) 2,583 5.3 -10.5°
Maximum altitude 15:58:12 28° 70° (ENE) 1,618 4.1 -11.5°
Drops below altitude 10° 16:02:57 10° 14° (NNE) 2,539 5.5 -12.5°
Sets 16:05:36 0° 3° (N) 3,454 6.3 -13.1°
